Orbital Elements at Epoch 2459200.5 (2020-Dec-17.0) TDB
Reference: JPL 5 (heliocentric ecliptic J2000)
Element | Value | Uncertainty (1-sigma) | Units |
e | .5478903006062842 | 0.00010805 | |
a | 2.417277794393248 | 0.00061511 | au |
q | 1.092874736974236 | 1.6913e-05 | au |
i | 6.763507005948207 | 0.00099699 | deg |
node | 149.8404900496763 | 0.00020822 | deg |
peri | 28.0550367295062 | 0.00059923 | deg |
M | 335.8820889582221 | 0.009101 | deg |
tp | 2459292.465610642907 (2021-Mar-18.96561064) | 0.00042159 | TDB |
period | 1372.739943111005 3.76 | 0.52397 0.001435 | d yr |
n | .2622492350474929 | 0.0001001 | deg/d |
Q | 3.741680851812261 | 0.00095212 | au |
|
| | Orbit Determination Parameters
Additional Information
|